| time (UTC) | temp F | wind direction | speed MPH | gust MPH | rain 1hr in | rain 24hr in | rain mn in | humidity % | barometer mb |
| 20260504022715 | 34 | 320 | 2.0 | 3.0 | 0.00 | 0.00 | 0.00 | 83 | 1007.3 |
| 20260504020714 | 35 | 320 | 2.0 | 2.0 | 0.00 | 0.00 | 0.00 | 80 | 1007.3 |
| 20260504014715 | 37 | 321 | 2.0 | 2.0 | 0.00 | 0.00 | 0.00 | 76 | 1007.5 |
| 20260504012714 | 37 | 282 | 4.0 | 4.0 | 0.00 | 0.00 | 0.00 | 76 | 1007.7 |
| 20260504010715 | 38 | 330 | 1.0 | 3.0 | 0.00 | 0.00 | 0.00 | 72 | 1007.7 |
| 20260504004714 | 39 | 353 | 1.0 | 2.0 | 0.00 | 0.00 | 0.00 | 69 | 1007.8 |
| 20260504002715 | 39 | 14 | 2.0 | 3.0 | 0.00 | 0.00 | 0.00 | 68 | 1007.9 |
| 20260504000714 | 39 | 341 | 1.0 | 2.0 | 0.00 | 0.00 | 0.00 | 66 | 1008.1 |
| 20260503234714 | 40 | 355 | 2.0 | 3.0 | 0.00 | 0.00 | 0.00 | 67 | 1008.1 |
| 20260503232714 | 40 | 309 | 3.0 | 4.0 | 0.00 | 0.00 | 0.00 | 67 | 1008.3 |
| 20260503230714 | 40 | 328 | 3.0 | 4.0 | 0.00 | 0.00 | 0.00 | 67 | 1008.3 |
| 20260503224714 | 40 | 310 | 2.0 | 3.0 | 0.00 | 0.00 | 0.00 | 65 | 1008.5 |
| 20260503222714 | 40 | 340 | 2.0 | 4.0 | 0.00 | 0.00 | 0.00 | 64 | 1008.6 |
| 20260503220714 | 40 | 29 | 3.0 | 5.0 | 0.00 | 0.00 | 0.00 | 64 | 1008.5 |
| 20260503214713 | 41 | 9 | 3.0 | 6.0 | 0.00 | 0.00 | 0.00 | 63 | 1008.9 |
| 20260503212713 | 41 | 13 | 3.0 | 5.0 | 0.00 | 0.00 | 0.00 | 63 | 1008.9 |
| 20260503210714 | 41 | 352 | 3.0 | 6.0 | 0.00 | 0.00 | 0.00 | 62 | 1008.9 |
| 20260503204714 | 42 | 339 | 7.0 | 10.0 | 0.00 | 0.00 | 0.00 | 61 | 1009.0 |
| 20260503202713 | 43 | 329 | 6.0 | 9.0 | 0.00 | 0.00 | 0.00 | 59 | 1009.0 |
| 20260503200713 | 43 | 327 | 4.0 | 8.0 | 0.00 | 0.00 | 0.00 | 57 | 1009.0 |
| 20260503194713 | 44 | 325 | 6.0 | 9.0 | 0.00 | 0.00 | 0.00 | 53 | 1008.8 |
| 20260503192712 | 46 | 323 | 5.0 | 7.0 | 0.00 | 0.00 | 0.00 | 50 | 1008.8 |
| 20260503190713 | 47 | 324 | 4.0 | 6.0 | 0.00 | 0.00 | 0.00 | 48 | 1008.8 |
| 20260503184713 | 47 | 323 | 6.0 | 10.0 | 0.00 | 0.00 | 0.00 | 47 | 1008.7 |
| 20260503182712 | 48 | 316 | 6.0 | 9.0 | 0.00 | 0.00 | 0.00 | 47 | 1008.7 |
| 20260503180713 | 49 | 317 | 6.0 | 10.0 | 0.00 | 0.00 | 0.00 | 46 | 1008.6 |
| 20260503174713 | 49 | 317 | 8.0 | 15.0 | 0.00 | 0.00 | 0.00 | 45 | 1008.5 |
| 20260503172719 | 51 | 328 | 7.0 | 13.0 | 0.00 | 0.00 | 0.00 | 46 | 1008.4 |
| 20260503170712 | 52 | 302 | 9.0 | 13.0 | 0.00 | 0.00 | 0.00 | 46 | 1008.4 |
| 20260503150712 | 56 | 328 | 6.0 | 10.0 | 0.00 | 0.00 | 0.00 | 42 | 1008.6 |
| 20260503130711 | 55 | 308 | 9.0 | 13.0 | 0.00 | 0.00 | 0.00 | 50 | 1009.0 |
| 20260503110711 | 57 | 312 | 9.0 | 15.0 | 0.00 | 0.00 | 0.00 | 56 | 1009.0 |
| 20260503080711 | 49 | 351 | 7.0 | 12.0 | 0.00 | 0.00 | 0.00 | 80 | 1008.9 |
| 20260503072710 | 48 | 321 | 6.0 | 10.0 | 0.00 | 0.00 | 0.00 | 87 | 1008.6 |
| 20260503070710 | 47 | 337 | 7.0 | 12.0 | 0.00 | 0.00 | 0.00 | 88 | 1008.3 |
| 20260503054710 | 45 | 323 | 5.0 | 9.0 | 0.00 | 0.00 | 0.00 | 95 | 1007.6 |
| 20260503052710 | 45 | 321 | 1.0 | 2.0 | 0.00 | 0.00 | 0.00 | 93 | 1007.2 |
| 20260503050710 | 44 | 312 | 2.0 | 3.0 | 0.00 | 0.00 | 0.00 | 94 | 1007.1 |
| 20260503044710 | 44 | 355 | 4.0 | 6.0 | 0.00 | 0.00 | 0.00 | 92 | 1007.0 |
| 20260503042710 | 45 | 342 | 5.0 | 9.0 | 0.00 | 0.00 | 0.00 | 89 | 1006.9 |
| 20260503040710 | 46 | 342 | 5.0 | 9.0 | 0.00 | 0.00 | 0.00 | 82 | 1006.9 |
| 20260503034710 | 45 | 321 | 4.0 | 9.0 | 0.00 | 0.00 | 0.00 | 80 | 1006.9 |
| 20260503032710 | 44 | 298 | 5.0 | 8.0 | 0.00 | 0.00 | 0.00 | 86 | 1006.8 |
| 20260503030710 | 42 | 295 | 4.0 | 6.0 | 0.00 | 0.00 | 0.00 | 89 | 1006.4 |
| 20260503024710 | 42 | 283 | 4.0 | 5.0 | 0.00 | 0.00 | 0.00 | 89 | 1006.2 |